EN

Hourly Weather Altnau

Today, 23 January, Saturday

Time Temperature Precipitation Wind Pressure Humidity
00:00 +3°C° 0.6 mm 2 mps 708 mmHg 97%
01:00 +3°C° 0.6 mm 2 mps 708 mmHg 98%
02:00 +1°C° 2.3 mm 3 mps 709 mmHg 98%
03:00 0°C° 2.3 mm 4 mps 709 mmHg 98%
04:00 -2°C° 2.3 mm 6 mps 710 mmHg 98%
05:00 -1°C° 1 mm 5 mps 711 mmHg 98%
06:00 -1°C° 1 mm 4 mps 711 mmHg 97%
07:00 0°C° 1 mm 3 mps 712 mmHg 97%
08:00 +1°C° 0 mm 2 mps 712 mmHg 96%
09:00 +1°C° 0 mm 2 mps 712 mmHg 94%
10:00 +3°C° 0 mm 1 mps 712 mmHg 93%
11:00 +3°C° 0 mm 1 mps 712 mmHg 93%
12:00 +3°C° 0 mm 1 mps 711 mmHg 93%
13:00 +4°C° 0 mm 1 mps 711 mmHg 93%
14:00 +4°C° 0 mm 1 mps 711 mmHg 93%
15:00 +3°C° 0 mm 1 mps 711 mmHg 93%
16:00 +3°C° 0 mm 1 mps 711 mmHg 94%
17:00 +2°C° 0 mm 1 mps 711 mmHg 93%
18:00 0°C° 0 mm 0 mps 711 mmHg 92%
19:00 -1°C° 0 mm 0 mps 711 mmHg 91%
20:00 0°C° 0 mm 1 mps 711 mmHg 90%
21:00 -1°C° 0 mm 1 mps 711 mmHg 90%
22:00 -1°C° 0 mm 1 mps 711 mmHg 89%
23:00 -1°C° 0 mm 1 mps 711 mmHg 88%

Tomorrow, 24 January, Sunday

Time Temperature Precipitation Wind Pressure Humidity
00:00 -1°C° 0 mm 1 mps 711 mmHg 88%
01:00 -1°C° 0 mm 1 mps 711 mmHg 88%
02:00 -2°C° 0.2 mm 2 mps 711 mmHg 89%
03:00 -3°C° 0.2 mm 4 mps 712 mmHg 91%
04:00 -2°C° 0.2 mm 5 mps 712 mmHg 93%
05:00 -2°C° 0.1 mm 4 mps 712 mmHg 93%
06:00 -3°C° 0.1 mm 4 mps 713 mmHg 93%
07:00 -2°C° 0.1 mm 3 mps 713 mmHg 94%
08:00 -2°C° 0.2 mm 3 mps 714 mmHg 93%
09:00 -1°C° 0.2 mm 3 mps 714 mmHg 93%
10:00 -1°C° 0.2 mm 3 mps 715 mmHg 93%
11:00 0°C° 0 mm 3 mps 715 mmHg 90%
12:00 0°C° 0 mm 3 mps 714 mmHg 88%
13:00 +2°C° 0 mm 2 mps 714 mmHg 86%
14:00 +1°C° 0 mm 2 mps 714 mmHg 87%
15:00 +2°C° 0 mm 1 mps 714 mmHg 88%
16:00 +1°C° 0 mm 0 mps 714 mmHg 89%
17:00 0°C° 0 mm 0 mps 714 mmHg 89%
18:00 -1°C° 0 mm 0 mps 714 mmHg 90%
19:00 -1°C° 0 mm 0 mps 714 mmHg 90%
20:00 0°C° 0.1 mm 1 mps 714 mmHg 92%
21:00 0°C° 0.1 mm 1 mps 714 mmHg 93%
22:00 -2°C° 0.1 mm 2 mps 714 mmHg 95%
23:00 -2°C° 0.2 mm 2 mps 715 mmHg 95%

Day after tomorrow, 25 January, Monday

Time Temperature Precipitation Wind Pressure Humidity
00:00 -2°C° 0.2 mm 2 mps 715 mmHg 95%
01:00 -2°C° 0.2 mm 2 mps 715 mmHg 95%
02:00 -2°C° 0.3 mm 3 mps 715 mmHg 94%
03:00 -2°C° 0.3 mm 3 mps 716 mmHg 94%
04:00 -2°C° 0.3 mm 3 mps 716 mmHg 93%
05:00 -3°C° 0.3 mm 4 mps 717 mmHg 94%
06:00 -4°C° 0.3 mm 4 mps 717 mmHg 94%
07:00 -4°C° 0.3 mm 4 mps 718 mmHg 94%
08:00 -4°C° 0.5 mm 5 mps 719 mmHg 93%
09:00 -4°C° 0.5 mm 5 mps 719 mmHg 93%
10:00 -4°C° 0.5 mm 6 mps 720 mmHg 92%
11:00 -3°C° 0.3 mm 6 mps 720 mmHg 90%
12:00 -3°C° 0.3 mm 6 mps 721 mmHg 89%
13:00 -3°C° 0.3 mm 6 mps 721 mmHg 87%
14:00 -2°C° 0.1 mm 5 mps 721 mmHg 87%
15:00 -2°C° 0.1 mm 4 mps 721 mmHg 86%
16:00 -1°C° 0.1 mm 3 mps 722 mmHg 86%
17:00 -2°C° 0.7 mm 4 mps 722 mmHg 89%
18:00 -2°C° 0.7 mm 4 mps 722 mmHg 91%
19:00 -4°C° 0.7 mm 5 mps 723 mmHg 94%
20:00 -4°C° 0.6 mm 5 mps 723 mmHg 93%
21:00 -4°C° 0.6 mm 5 mps 724 mmHg 92%
22:00 -4°C° 0.6 mm 5 mps 724 mmHg 91%
23:00 -4°C° 0.5 mm 5 mps 724 mmHg 91%

26 January, Tuesday

Time Temperature Precipitation Wind Pressure Humidity
00:00 -4°C° 0.5 mm 5 mps 725 mmHg 91%
01:00 -2°C° 0.5 mm 5 mps 725 mmHg 90%
02:00 -4°C° 0.1 mm 5 mps 725 mmHg 91%
03:00 -3°C° 0.1 mm 4 mps 725 mmHg 92%
04:00 -3°C° 0.1 mm 4 mps 725 mmHg 92%
05:00 -3°C° 0.1 mm 4 mps 726 mmHg 93%
06:00 -3°C° 0.1 mm 4 mps 726 mmHg 93%
07:00 -3°C° 0.1 mm 4 mps 726 mmHg 93%
08:00 -3°C° 0.1 mm 4 mps 726 mmHg 92%
09:00 -2°C° 0.1 mm 4 mps 726 mmHg 92%
10:00 -2°C° 0.1 mm 4 mps 727 mmHg 92%
11:00 -1°C° 0.1 mm 4 mps 727 mmHg 91%
12:00 -1°C° 0.1 mm 4 mps 727 mmHg 91%
13:00 0°C° 0.1 mm 4 mps 727 mmHg 91%
14:00 0°C° 0 mm 4 mps 727 mmHg 91%
15:00 0°C° 0 mm 3 mps 726 mmHg 91%
16:00 +1°C° 0 mm 2 mps 726 mmHg 91%
17:00 +1°C° 0 mm 2 mps 727 mmHg 91%
18:00 -1°C° 0 mm 2 mps 727 mmHg 91%
19:00 -2°C° 0 mm 2 mps 727 mmHg 91%
20:00 -1°C° 0 mm 2 mps 727 mmHg 90%
21:00 -1°C° 0 mm 2 mps 726 mmHg 90%
22:00 -1°C° 0 mm 2 mps 726 mmHg 89%
23:00 -1°C° 0.4 mm 2 mps 726 mmHg 91%

27 January, Wednesday

Time Temperature Precipitation Wind Pressure Humidity
00:00 -1°C° 0.4 mm 3 mps 725 mmHg 93%
01:00 -1°C° 0.4 mm 3 mps 725 mmHg 95%
02:00 -1°C° 0.4 mm 3 mps 724 mmHg 96%
03:00 -1°C° 0.4 mm 4 mps 723 mmHg 96%
04:00 -1°C° 0.4 mm 4 mps 723 mmHg 96%
05:00 0°C° 0.6 mm 5 mps 723 mmHg 97%
06:00 +1°C° 0.6 mm 5 mps 723 mmHg 98%
07:00 +1°C° 0.6 mm 5 mps 723 mmHg 98%
08:00 +1°C° 0.4 mm 5 mps 723 mmHg 98%
09:00 +1°C° 0.4 mm 5 mps 724 mmHg 98%
10:00 +1°C° 0.4 mm 5 mps 725 mmHg 97%
11:00 +2°C° 0.1 mm 5 mps 725 mmHg 97%
12:00 +2°C° 0.1 mm 5 mps 725 mmHg 96%
13:00 +2°C° 0.1 mm 5 mps 726 mmHg 96%
14:00 +3°C° 0.1 mm 4 mps 726 mmHg 96%
15:00 +3°C° 0.1 mm 4 mps 727 mmHg 95%
16:00 +3°C° 0.1 mm 4 mps 727 mmHg 95%
17:00 +3°C° 0.1 mm 3 mps 728 mmHg 94%
18:00 +2°C° 0.1 mm 3 mps 728 mmHg 94%
19:00 +2°C° 0.1 mm 3 mps 729 mmHg 93%
20:00 +2°C° 0 mm 3 mps 729 mmHg 93%
21:00 +2°C° 0 mm 2 mps 729 mmHg 92%
22:00 +2°C° 0 mm 2 mps 729 mmHg 92%
23:00 +2°C° 0 mm 2 mps 729 mmHg 91%

28 January, Thursday

Time Temperature Precipitation Wind Pressure Humidity
00:00 +1°C° 0 mm 2 mps 728 mmHg 90%
01:00 +1°C° 0 mm 2 mps 728 mmHg 90%
02:00 +1°C° 0 mm 2 mps 727 mmHg 88%
03:00 +1°C° 0 mm 2 mps 727 mmHg 87%
04:00 +1°C° 0 mm 2 mps 726 mmHg 85%
05:00 +1°C° 0.2 mm 2 mps 726 mmHg 86%
06:00 +2°C° 0.2 mm 2 mps 725 mmHg 87%
07:00 +1°C° 0.2 mm 3 mps 725 mmHg 87%
08:00 +1°C° 0.4 mm 3 mps 725 mmHg 90%
09:00 +2°C° 0.4 mm 3 mps 724 mmHg 92%
10:00 +2°C° 0.4 mm 3 mps 724 mmHg 95%
11:00 +3°C° 0 mm 3 mps 724 mmHg 95%
12:00 +4°C° 0 mm 3 mps 723 mmHg 94%
13:00 +5°C° 0 mm 4 mps 723 mmHg 94%
14:00 +5°C° 0.1 mm 4 mps 723 mmHg 94%
15:00 +5°C° 0.1 mm 4 mps 722 mmHg 94%
16:00 +5°C° 0.1 mm 4 mps 722 mmHg 94%
17:00 +5°C° 1.5 mm 5 mps 722 mmHg 94%
18:00 +3°C° 1.5 mm 5 mps 723 mmHg 95%
19:00 +3°C° 1.5 mm 5 mps 723 mmHg 95%
Show more